User: anonymous   Login
Location: Conflandey
(47.7287°N, 6.0456°E)
Time: 07:36:24
(UTC+00:00)
Language:

Cosmos 332 Rocket - Orbit

View from above orbital plane
View from above orbital plane
View from above satellite
View from above satellite

Ground track
Ground track

The orbit data is extracted from the following two-line orbital elements,

1 04370U 70028B   22016.79854619  .00000300  00000-0  68354-4 0  9994
2 04370  74.0395 134.4620 0016017 341.9953  18.0643 14.60165901255897
Epoch (UTC): 16 January 2022 19:09:54
Eccentricity: 0.0016017
inclination: 74.0395°
perigee height: 681 km
apogee height: 704 km
right ascension of ascending node: 134.4620°
argument of perigee: 341.9953°
revolutions per day: 14.60165901
mean anomaly at epoch: 18.0643°
orbit number at epoch: 25589

The dashed part of the orbit path shows where the satellite is in the earth's shadow,  

DLR